2017-008P

Last updated on Tue Feb 28 2017 00:15:03 GMT+0000 (Coordinated Universal Time)

1 41961U 17008P 17058.70156424 .00001650 00000-0 76760-4 0 9999 2 41961 97.5098 120.3034 0008485 208.8750 151.2018 15.21366841 1724

Satellite not in orbit

2017-008P